Penn Yan, NY

11:47 PM EDT on October 21, 2017 (GMT -0400)
Penn Yan

Weather History for KPEO - September, 2013

Change the Weather History Date:

Thursday, September 5, 2013

  Actual Average (KITH) Record (KITH)
Temperature  
Mean Temperature 57 °F -  
Max Temperature 68 °F 73 °F 93 °F (1953)
Min Temperature 48 °F 51 °F 38 °F (1974)
Degree Days  
Heating Degree Days 8    
Growing Degree Days 7 (Base 50)    
Moisture  
Dew Point 48 °F    
Average Humidity 66    
Maximum Humidity 90    
Minimum Humidity 46    
Precipitation  
Precipitation 0.01 in - - ()
Sea Level Pressure  
Sea Level Pressure 30.11 in    
Wind  
Wind Speed 6 mph (NW)    
Max Wind Speed 13 mph    
Max Gust Speed 18 mph    
Visibility 10 miles    
Events Rain    
Averages and records for this station are not official NWS values.
T = Trace of Precipitation, MM = Missing Value Source: NWS Daily Summary

Daily Weather History Graph

Daily Weather History Graph

Search for Another Location

Airport or City:

Trip Planner

Search our weather history database for the weather conditions in past years. The results will help you decide how hot, cold, wet, or windy it might be!

Date:

Astronomy

Sep. 05, 2013 Rise Set
Actual Time 6:37 AM EDT 7:35 PM EDT
Civil Twilight 6:08 AM EDT 8:03 PM EDT
Nautical Twilight 5:34 AM EDT 8:38 PM EDT
Astronomical Twilight 4:58 AM EDT 9:13 PM EDT
Moon 6:48 AM EDT (9/5) 7:23 PM EDT (9/5)
Length of Visible Light 13h 55m
Length of Day
12h 57m
New Moon, 0% of the Moon is Illuminated
Sep 5
New Moon
Sep 12
First Quarter
Sep 19
Full
Sep 26
Last Quarter
Oct 4
New

Hourly Weather History & Observations

Time (EDT) Temp. Dew Point Humidity Pressure Visibility Wind Dir Wind Speed Gust Speed Precip Events Conditions
12:53 AM 66.0 °F 57.0 °F 73% 29.97 in 10.0 mi West 8.1 mph - 0.00 in Rain Light Rain
1:53 AM 63.0 °F 60.1 °F 90% 29.97 in 10.0 mi West 4.6 mph - 0.01 in   Overcast
2:53 AM 62.1 °F 57.0 °F 84% 29.98 in 10.0 mi Variable 6.9 mph - N/A   Mostly Cloudy
3:07 AM 60.8 °F 55.4 °F 82% 29.99 in 10.0 mi NW 9.2 mph - N/A   Scattered Clouds
3:53 AM 60.1 °F 54.0 °F 80% 29.99 in 10.0 mi NW 5.8 mph - N/A   Partly Cloudy
4:53 AM 57.9 °F 52.0 °F 81% 30.02 in 10.0 mi NW 4.6 mph - N/A   Partly Cloudy
5:53 AM 57.0 °F 52.0 °F 83% 30.04 in 10.0 mi WNW 4.6 mph - N/A   Partly Cloudy
6:53 AM 57.0 °F 52.0 °F 83% 30.06 in 10.0 mi Calm Calm - N/A   Mostly Cloudy
7:53 AM 57.0 °F 50.0 °F 77% 30.08 in 10.0 mi NW 3.5 mph - N/A   Scattered Clouds
8:53 AM 61.0 °F 48.9 °F 64% 30.08 in 10.0 mi NW 4.6 mph - N/A   Mostly Cloudy
9:53 AM 63.0 °F 46.9 °F 56% 30.11 in 10.0 mi Variable 6.9 mph - N/A   Mostly Cloudy
10:53 AM 64.0 °F 45.0 °F 50% 30.11 in 10.0 mi NW 8.1 mph - N/A   Clear
11:53 AM 66.0 °F 46.0 °F 48% 30.11 in 10.0 mi NNW 6.9 mph - N/A   Mostly Cloudy
12:53 PM 64.0 °F 46.9 °F 54% 30.12 in 10.0 mi NW 8.1 mph - N/A   Overcast
1:53 PM 66.0 °F 48.0 °F 52% 30.12 in 10.0 mi NNW 5.8 mph 17.3 mph N/A   Mostly Cloudy
2:53 PM 66.0 °F 46.9 °F 50% 30.13 in 10.0 mi Variable 5.8 mph 18.4 mph N/A   Mostly Cloudy
3:53 PM 64.9 °F 44.1 °F 47% 30.14 in 10.0 mi NNW 12.7 mph 18.4 mph N/A   Scattered Clouds
4:53 PM 64.0 °F 43.0 °F 46% 30.15 in 10.0 mi NNW 9.2 mph 18.4 mph N/A   Clear
5:53 PM 62.1 °F 42.1 °F 48% 30.17 in 10.0 mi NNW 9.2 mph - N/A   Partly Cloudy
6:53 PM 60.1 °F 42.1 °F 51% 30.18 in 10.0 mi NNW 5.8 mph - N/A   Clear
7:53 PM 53.1 °F 42.1 °F 66% 30.20 in 10.0 mi Calm Calm - N/A   Clear
8:53 PM 48.9 °F 42.1 °F 77% 30.22 in 10.0 mi Calm Calm - N/A   Clear
9:53 PM 50.0 °F 42.1 °F 74% 30.23 in 10.0 mi Calm Calm - N/A   Clear
10:53 PM 50.0 °F 42.1 °F 74% 30.23 in 10.0 mi Calm Calm - N/A   Clear
11:53 PM 52.0 °F 41.0 °F 66% 30.23 in 10.0 mi West 4.6 mph - N/A   Clear